Regional Weather Roundup
Issued by NWS

Home | Current Version | Previous Version | Text Only | Print | Product List | Glossary Off
Versions: 1 2 3 4 5 6 7 8 9 10 11 12 13 14 15 16 17 18 19 20 21 22 23 24 25 26 27 28 29 30 31 32 33 34 35 36 37 38 39 40 41 42 43 44 45 46 47 48 49 50

000
ASUS43 KIND 010109
RWRIN

WEATHER ROUNDUP FOR INDIANA
NATIONAL WEATHER SERVICE INDIANAPOLIS IN
900 PM EDT FRI SEP 30 2016

NOTE: "FAIR" INDICATES FEW OR NO CLOUDS BELOW 12,000 FEET WITH NO
SIGNIFICANT WEATHER AND/OR OBSTRUCTIONS TO VISIBILITY.

* - STATION DOES NOT REPORT WEATHER SUCH AS PRECIPITATION OR FOG.

+ - STATION NOT QUALITY CONTROLLED BY THE NATIONAL WEATHER SERVICE.
    USE DATA WITH CAUTION...ESPECIALLY DEWPOINT AND RELATIVE
    HUMIDITY OBSERVATIONS.

INZ001>003-010>013-019-020-010200-
NORTHWEST INDIANA

CITY           SKY/WX    TMP DP  RH WIND       PRES   REMARKS
GARY /AIRPORT/ CLOUDY    63  61  94 NE12G23   30.06F
KNOX *+        MOCLDY    59  52  77 NE6       30.03F
LA PORTE +     CLOUDY   N/A N/A N/A NE9       30.06S
MICHIGAN CITY+ CLOUDY    59  59 100 CALM      30.06S
MONTICELLO +   CLOUDY    62  55  79 NE6       30.01R
RENSSELAER +   LGT RAIN  61  61 100 NE9       30.03S
VALPARAISO     CLOUDY    60  58  92 N6        30.05S

$$

LMZ046-743>745-010200-
SOUTHERN LAKE MICHIGAN

STATION/POSITION TIME  TEMP    WIND        PRES    WAVE
                       AIR SEA DIR/SP/G            HT
                 (UTC) (F)     (DEG/KT/KT) (MB)    (FT)
BURNS HARBOR     0040   62      50/ 17/ 20 1017.6S
MICHIGAN CITY    0040   61      20/ 17/ 19   N/A
5NW MICH CITY    0100   62 64   50/ 14/ 17   N/A     4

$$

INZ004-005-014>016-021>024-010200-
NORTH CENTRAL INDIANA

CITY           SKY/WX    TMP DP  RH WIND       PRES   REMARKS
ELKHART        CLOUDY    61  57  88 NE13      30.05S
GOSHEN         LGT RAIN  61  57  87 NE12      30.05R
LOGANSPORT +   CLOUDY    61  55  82 NE3       30.03R
PERU/GRISSOM   PTCLDY    61  59  92 NE7       29.99S
ROCHESTER +    CLOUDY    63  61  94 CALM      30.03R
SOUTH BEND     CLOUDY    59  58  96 NE10      30.05F
WARSAW +       CLOUDY    59  55  88 NE5       30.04S

$$

INZ006>009-017-018-025>027-010200-
NORTHEAST INDIANA

CITY           SKY/WX    TMP DP  RH WIND       PRES   REMARKS
ANGOLA *+        N/A     59  46  63 NE6       30.05R
AUBURN +       MOCLDY    59  55  88 SE3       30.06R
FORT WAYNE     PTCLDY    58  56  93 NE6       30.04R
HUNTINGTON +   PTCLDY    57  56  96 E3        30.03R
KENDALLVILLE + PTCLDY    59  58  97 NE7       30.05R

$$

INZ028-029-035-036-043>045-051>053-010200-
WEST CENTRAL INDIANA

CITY           SKY/WX    TMP DP  RH WIND       PRES   REMARKS
CRAWFORDSVL +  CLOUDY    58  58 100 NE3       30.00R
GREENCASTLE +  CLOUDY    57  57 100 CALM      30.00S
LAFAYETTE      CLOUDY    62  59  90 NE9       30.00R
TERRE HAUTE    CLOUDY    60  58  92 S5        30.00R

$$

INZ030>032-037>040-046>048-054>057-064-065-010200-
CENTRAL INDIANA

CITY           SKY/WX    TMP DP  RH WIND       PRES   REMARKS
COLUMBUS       PTCLDY    57  55  94 CALM      30.01R
FISHERS *+     CLOUDY    57  57 100 SE5       30.00
FRANKFORT +    CLOUDY    63  60  90 E9        30.02R
GREENWOOD *+   CLOUDY    59  59 100 CALM      30.01R
INDIANAPOLIS   LGT RAIN  59  56  89 CALM      29.99R
-EAGLE CREEK   CLOUDY    61  58  90 SE6       29.99R
KOKOMO *+      CLOUDY    61  57  88 E7        30.01S
MARION +       CLOUDY    59  57  92 NE10      30.01S FOG
MT COMFORT *+  CLOUDY    57  55  94 CALM      30.01S
SHELBYVILLE    CLOUDY    61  52  72 S5        30.00R
ZIONSVILLE +   CLOUDY    59  58  94 E7        30.00S

$$

INZ033-034-041-042-049-050-058-059-010200-
EAST CENTRAL INDIANA

CITY           SKY/WX    TMP DP  RH WIND       PRES   REMARKS
MUNCIE         CLOUDY    61  60  97 E6        30.01R

$$

INZ060-061-067>069-081>083-085>088-010200-
SOUTHWEST INDIANA

CITY           SKY/WX    TMP DP  RH WIND       PRES   REMARKS
EVANSVILLE     LGT RAIN  59  56  89 SW5       30.00F
HUNTINGBURG *+   N/A     57  52  82 S3        30.01S
WASHINGTON +   CLOUDY    58  58 100 CALM      29.99S

$$

INZ062-063-066-070>080-084-089>092-010200-
SOUTH CENTRAL AND SOUTHEAST INDIANA

CITY           SKY/WX    TMP DP  RH WIND       PRES   REMARKS
BLOOMINGTON    CLEAR     56  52  86 CALM      30.00S
MADISON *+     PTCLDY    54  52  94 CALM      30.03S
NORTH VERNON + CLOUDY    57  57 100 S3        30.01S
SEYMOUR +      PTCLDY    57  52  82 CALM      30.01R

$$





USA.gov is the U.S. government's official web portal to all federal, state and local government web resources and services.